Regional Weather Roundup
Issued by NWS

Home | Current Version | Previous Version | Text Only | Print | Product List | Glossary On
Versions: 1 2 3 4 5 6 7 8 9 10 11 12 13 14 15 16 17 18 19 20 21 22 23 24 25 26 27 28 29 30 31 32 33 34 35 36 37 38 39 40 41 42 43 44 45 46 47 48 49 50
000
ASUS44 KBMX 280510
RWRAL

ALABAMA REGIONAL WEATHER ROUNDUP
NATIONAL WEATHER SERVICE BIRMINGHAM AL
1200 AM CDT WED SEP 28 2016

NOTE: "FAIR" INDICATES FEW OR NO CLOUDS BELOW 12,000 FEET
WITH NO SIGNIFICANT WEATHER AND/OR OBSTRUCTIONS TO VISIBILITY.

THE REMARK "TC" DENOTES TEMPERATURE IN DEGREES CELSIUS.

ALZ001>011-014-016>018-020-280600-
NORTH ALABAMA

CITY           SKY/WX    TMP DP  RH WIND       PRES   REMARKS
MUSCLE SHOALS  CLEAR     52  47  83 CALM      29.97S
HUNTSVILLE     CLEAR     62  48  60 CALM      29.95F
DECATUR        CLEAR     59  49  69 CALM      29.96F
HALEYVILLE     FAIR      56  49  77 CALM      29.99S
GADSDEN        CLEAR     65  58  78 CALM      29.94S
$$

ALZ012-013-022-023-030>036-040>044-280600-
WEST CENTRAL ALABAMA

CITY           SKY/WX    TMP DP  RH WIND       PRES   REMARKS
TUSCALOOSA     CLOUDY    65  59  81 CALM      29.93F
$$

ALZ015-024>027-033>036-040>044-280600-
CENTRAL ALABAMA

CITY           SKY/WX    TMP DP  RH WIND       PRES   REMARKS
BIRMINGHAM     CLEAR     70  54  56 N6        29.96F
MONTGOMERY     CLOUDY    74  67  78 CALM      29.93S
SHELBY CO ARPT CLOUDY    72  55  55 NW5       29.94S
MAXWELL AFB    PTCLDY    73  69  87 SW2       29.92S
GREENVILLE     NOT AVBL
$$

ALZ019-021-028-029-037-038-045>048-280600-
EAST CENTRAL ALABAMA

CITY           SKY/WX    TMP DP  RH WIND       PRES   REMARKS
ANNISTON       CLEAR     72  66  81 S3        29.92F
ALEXANDER CITY PTCLDY    74  74 100 CALM      29.94S
AUBURN         PTCLDY    76  68  76 W6        29.95S
$$

ALZ051>064-280600-
SOUTHWEST ALABAMA

CITY           SKY/WX    TMP DP  RH WIND       PRES   REMARKS
MOBILE         PTCLDY    73  71  93 W5        29.95S
BROOKLEY FIELD PTCLDY    73  73 100 W3        29.95S
EVERGREEN      PTCLDY    71  69  93 CALM      29.94F
$$

ALZ049-050-065>069-280600-
SOUTHEAST ALABAMA

CITY           SKY/WX    TMP DP  RH WIND       PRES   REMARKS
DOTHAN         CLOUDY    75  73  93 SW5       29.97F
OZARK          MOCLDY    72  71  98 CALM      29.93F
TROY           CLEAR     71  71 100 SW3       29.94F
EUFAULA        NOT AVBL
$$



USA.gov is the U.S. government's official web portal to all federal, state and local government web resources and services.